DG7YEO-13 Weather Reports


Display with metric or nautical units.
time (UTC)temp
F
wind
direction
speed
MPH
gust
MPH
rain 1hr
in
rain 24hr
in
rain mn
in
humidity
%
barometer
mb
20260504034705 56 45 0.0 0.0 0.00 0.01 0.00 92 1011.7
20260504033205 56 45 0.0 0.0 0.00 0.01 0.00 91 1011.7
20260504031705 57 45 0.0 0.0 0.00 0.01 0.00 91 1011.7
20260504030204 57 45 0.0 0.0 0.00 0.01 0.00 90 1011.6
20260504024705 57 45 0.0 0.0 0.00 0.01 0.00 90 1011.4
20260504023205 57 45 0.0 0.0 0.00 0.01 0.00 89 1011.4
20260504021705 58 45 0.0 0.0 0.00 0.01 0.00 89 1011.4
20260504020205 58 45 0.0 0.0 0.00 0.01 0.00 88 1011.4
20260504014704 58 45 0.0 0.0 0.00 0.01 0.00 88 1011.3
20260504013205 59 45 0.0 1.0 0.00 0.01 0.00 89 1011.2
20260504011705 59 45 0.0 1.0 0.00 0.01 0.00 89 1011.4
20260504010205 59 45 0.0 2.0 0.00 0.01 0.00 88 1011.3
20260504004704 59 51 0.0 1.0 0.00 0.01 0.00 88 1011.3
20260504003205 59 50 0.0 1.0 0.00 0.01 0.00 88 1011.2
20260504001705 59 57 0.0 3.0 0.00 0.01 0.00 87 1011.1
20260504000205 59 338 0.0 1.0 0.00 0.01 0.00 87 1010.9
20260503234705 60 5 0.0 1.0 0.00 0.01 0.00 87 1011.1
20260503233205 60 5 0.0 0.0 0.00 0.01 0.00 87 1011.2
20260503231705 60 5 0.0 0.0 0.00 0.01 0.00 85 1011.1
20260503230205 60 5 0.0 0.0 0.00 0.01 0.00 85 1011.0
20260503224704 61 5 0.0 1.0 0.00 0.01 0.00 84 1010.8
20260503223205 61 5 0.0 1.0 0.00 0.01 0.00 84 1010.9
20260503221705 61 22 0.0 0.0 0.00 0.01 0.00 84 1010.8
20260503220205 62 22 0.0 1.0 0.00 0.01 0.01 84 1010.9
20260503214704 62 22 0.0 3.0 0.00 0.01 0.01 83 1010.9
20260503213205 62 21 0.0 1.0 0.00 0.01 0.01 83 1011.0
20260503211704 62 21 0.0 0.0 0.00 0.03 0.01 83 1011.1
20260503210205 62 21 0.0 1.0 0.00 0.04 0.01 83 1011.0
20260503204705 62 21 0.0 1.0 0.00 0.10 0.01 83 1011.1
20260503203205 62 21 0.0 1.0 0.00 0.17 0.01 83 1011.1
20260503201705 62 20 0.0 1.0 0.00 0.18 0.01 82 1011.1
20260503200213 62 20 0.0 2.0 0.00 0.20 0.01 82 1011.1
20260503194705 62 5 0.0 2.0 0.00 0.22 0.01 82 1011.2
20260503193205 62 5 0.0 2.0 0.00 0.22 0.01 81 1011.1
20260503191705 62 355 0.0 2.0 0.00 0.25 0.01 81 1010.9
20260503190205 62 55 1.0 4.0 0.00 0.25 0.01 81 1010.7
20260503184705 62 15 1.0 3.0 0.00 0.25 0.01 81 1010.7
20260503183205 63 317 1.0 3.0 0.00 0.25 0.01 80 1010.4
20260503181705 63 41 1.0 4.0 0.00 0.25 0.01 79 1010.5
20260503180205 63 13 1.0 5.0 0.00 0.25 0.01 79 1010.4
20260503174705 63 71 1.0 5.0 0.00 0.25 0.01 78 1010.4
20260503173205 64 47 1.0 3.0 0.00 0.25 0.01 76 1010.4
20260503171705 64 5 1.0 6.0 0.00 0.25 0.01 74 1010.3
20260503170205 65 286 1.0 9.0 0.00 0.25 0.01 70 1010.2
20260503160205 67 257 1.0 6.0 0.00 0.25 0.01 65 1010.0
20260503150205 67 38 1.0 5.0 0.00 0.25 0.01 67 1010.0
20260503140205 72 5 2.0 7.0 0.00 0.25 0.01 46 1009.8
20260503130205 75 299 2.0 6.0 0.00 0.25 0.01 42 1009.7
20260503120205 75 70 2.0 11.0 0.00 0.25 0.01 44 1009.7
20260503110205 75 0 2.0 7.0 0.00 0.25 0.01 47 1010.0
20260503100205 74 51 2.0 8.0 0.00 0.25 0.01 56 1010.4
20260503090205 71 88 2.0 7.0 0.00 0.25 0.01 64 1010.8
20260503080205 68 24 1.0 4.0 0.00 0.25 0.01 72 1010.8
20260503071705 64 55 1.0 4.0 0.00 0.25 0.01 84 1010.9
20260503070205 62 63 0.0 5.0 0.00 0.25 0.01 90 1011.0
20260503060206 59 57 0.0 4.0 0.01 0.25 0.01 96 1010.8
20260503054705 59 65 2.0 7.0 0.00 0.24 0.00 96 1010.8
20260503053205 58 61 1.0 4.0 0.00 0.24 0.00 96 1010.6
20260503051705 58 66 0.0 3.0 0.00 0.24 0.00 95 1010.8
20260503050205 58 65 0.0 1.0 0.00 0.24 0.00 95 1010.9
20260503044705 58 64 0.0 0.0 0.00 0.24 0.00 95 1011.0
20260503043205 58 64 0.0 0.0 0.00 0.24 0.00 95 1011.1
20260503041705 58 64 0.0 0.0 0.00 0.24 0.00 94 1011.6
20260503040205 58 64 0.0 0.0 0.00 0.24 0.00 94 1011.5